Weather WX

World > North America > United States > North Carolina

Cape Lookout National Seashore, North Carolina Regional Weather

Lat: 34.73N, Lon: 76.66W
Wx Zone: NCZ095
Feedback

Cape Lookout National Seashore, NC Regional Weather

Expires:201906251000;;046664
ASUS42 KMHX 250925
RWRMHX
WEATHER ROUNDUP FOR EASTERN NORTH CAROLINA
NATIONAL WEATHER SERVICE NEWPORT/MOREHEAD CITY NC
500 AM EDT TUE JUN 25 2019

NOTE: "FAIR" INDICATES FEW OR NO CLOUDS BELOW 12,000 FEET
WITH NO SIGNIFICANT WEATHER AND/OR OBSTRUCTIONS TO VISIBILITY


NCZ095-097-098-100-101-251000-
SOUTHERN COAST
  
CITY           SKY/WX    TMP DP  RH WIND       PRES   REMARKS
BEAUFORT       FAIR      80  76  87 S12       29.85F                  
CEDAR ISLAND   NOT AVBL                                               
JACKSONVILLE   FAIR      77  73  87 SW6       29.85S                  
PINEY ISLAND   FAIR      77  75  93 S6        29.86S                  
WILMINGTON     FAIR      78  72  81 W9        29.87S                  


$$


SKY/WX - Weather  TMP - Temperature  DP - Dew Point  RH - Relative Humidity
WIND - Wind Direction/Speed PRES - Barometric Pressure VSB - Visibility
WCI - Wind Chill Index E13G22 Wind - East Wind 13 mph/Gusts of 22 mph